TimeMDT,TemperatureF,Dew PointF,Humidity,Sea Level PressureIn,VisibilityMPH,Wind Direction,Wind SpeedMPH,Gust SpeedMPH,PrecipitationIn,Events,Conditions,WindDirDegrees,DateUTC
12:00 AM,42,37,75,29.83,,SSW,1.2,,,,,200,2012-10-12 06:00:00
12:00 AM,41.7,36.9,83,29.83,-9999.0,SSW,1.2,-,N/A,,Unknown,200,2012-10-12 06:00:00
1:00 AM,41.9,36.3,81,29.81,-9999.0,ESE,4.6,-,N/A,,Unknown,120,2012-10-12 07:00:00
2:00 AM,43.9,36.5,75,29.78,-9999.0,East,3.5,-,N/A,,Unknown,90,2012-10-12 08:00:00
3:00 AM,53.6,34.2,48,29.74,-9999.0,SW,12.7,-,N/A,,Unknown,230,2012-10-12 09:00:00
4:00 AM,54.9,29.8,38,29.73,-9999.0,WSW,17.3,24.2,N/A,,Unknown,250,2012-10-12 10:00:00
5:00 AM,55.0,27.9,35,29.73,-9999.0,West,10.4,-,N/A,,Unknown,270,2012-10-12 11:00:00
6:00 AM,52,31,33,29.71,,SW,12.7,,,,,230,2012-10-12 12:00:00
7:00 AM,53.1,31.5,44,29.70,-9999.0,WSW,17.3,-,N/A,,Unknown,240,2012-10-12 13:00:00
8:00 AM,51.8,31.8,47,29.69,-9999.0,WSW,18.4,-,N/A,,Unknown,250,2012-10-12 14:00:00
9:00 AM,52.2,30.7,44,29.70,-9999.0,WSW,12.7,-,N/A,,Unknown,240,2012-10-12 15:00:00
10:00 AM,51.4,31.8,47,29.68,-9999.0,South,9.2,-,N/A,,Unknown,170,2012-10-12 16:00:00
11:00 AM,54.9,31.3,41,29.66,-9999.0,SW,12.7,-,N/A,,Unknown,220,2012-10-12 17:00:00
12:00 PM,60,30,21,29.63,,South,13.8,,,,,180,2012-10-12 18:00:00
12:00 PM,60.4,30.2,32,29.63,-9999.0,South,13.8,-,N/A,,Unknown,180,2012-10-12 18:00:00
1:00 PM,64.9,30.9,28,29.59,-9999.0,SSW,11.5,19.6,N/A,,Unknown,200,2012-10-12 19:00:00
2:00 PM,65.5,30.9,27,29.55,-9999.0,West,24.2,32.2,N/A,,Unknown,260,2012-10-12 20:00:00
3:00 PM,66.7,31.3,27,29.55,-9999.0,WSW,16.1,23.0,N/A,,Unknown,250,2012-10-12 21:00:00
4:00 PM,66.4,31.6,27,29.56,-9999.0,WSW,16.1,-,N/A,,Unknown,250,2012-10-12 22:00:00
5:00 PM,63.7,31.8,30,29.59,-9999.0,WSW,17.3,-,N/A,,Unknown,240,2012-10-12 23:00:00
6:00 PM,60.1,31.3,34,29.61,-9999.0,West,9.2,-,N/A,,Unknown,260,2012-10-13 00:00:00
7:00 PM,58.3,34.7,41,29.65,-9999.0,West,8.1,-,N/A,,Unknown,270,2012-10-13 01:00:00
8:00 PM,51.6,35.8,55,29.68,-9999.0,North,3.5,-,N/A,,Unknown,10,2012-10-13 02:00:00
9:00 PM,54.0,33.6,46,29.70,-9999.0,Calm,Calm,-,N/A,,Unknown,0,2012-10-13 03:00:00
10:00 PM,50.7,35.2,55,29.71,-9999.0,SSW,5.8,-,N/A,,Unknown,210,2012-10-13 04:00:00
11:00 PM,51.4,35.2,54,29.72,-9999.0,West,6.9,-,N/A,,Unknown,260,2012-10-13 05:00:00